Location: DARK SKY Beskydy - Park tmavé oblohy, www.darkskybeskydy.cz
(49.4926°N, 18.5016°E)
Time: 03:19:10
(UTC+02:00)

A-11 Canister half - Pass Details

Date: 02 March 2024
Orbit: 1513 x 1686 km, 47.2° (Epoch: 24 April)

Event Time Altitude Azimuth Distance (km) Brightness Sun altitude
Rises 07:26:32 0° 289° (WNW) 4,898 11.0 8.6°
Reaches altitude 10° 07:30:38 10° 275° (W) 3,883 10.6 9.3°
Maximum altitude 07:37:30 22° 231° (SW) 2,995 10.4 10.3°
Drops below altitude 10° 07:44:14 10° 185° (S) 3,773 11.4 11.3°
Sets 07:48:11 0° 171° (S) 4,725 12.1 11.9°
